Location: Bannatyne
(13.0833°N, 59.5333°W)
Time: 14:15:25
(UTC+00:00)

Vanguard 2 Rocket - Pass Details

Date: 27 January 2020
Orbit: 554 x 3326 km, 32.9° (Epoch: 29 March)

Event Time Altitude Azimuth Distance (km) Brightness Sun altitude
Rises 14:12:56 0° 304° (WNW) 4,129 9.9 47.1°
Reaches altitude 10° 14:15:14 10° 305° (NW) 3,428 9.6 47.5°
Maximum altitude 14:24:29 83° 33° (NNE) 2,025 9.5 49.0°
Drops below altitude 10° 14:41:08 10° 121° (ESE) 5,802 11.8 51.5°
Sets 14:46:18 0° 122° (ESE) 7,075 12.0 52.2°
